, AK

(GMT )
Selawik

Weather History for PASK - July, 2013

Change the Weather History Date:

Friday, July 19, 2013

  Actual Average Record
Temperature  
Mean Temperature 58 °F -  
Max Temperature 62 °F 61 °F 71 °F (2003)
Min Temperature 55 °F 50 °F 44 °F (2006)
Degree Days  
Heating Degree Days 6    
Growing Degree Days 8 (Base 50)    
Moisture  
Dew Point 50 °F    
Average Humidity 77    
Maximum Humidity 88    
Minimum Humidity 63    
Precipitation  
Precipitation 0.02 in - - ()
Sea Level Pressure  
Sea Level Pressure 30.11 in    
Wind  
Wind Speed 9 mph (West)    
Max Wind Speed 15 mph    
Max Gust Speed 20 mph    
Visibility 10 miles    
Events      
Averages and records for this station are not official NWS values.
T = Trace of Precipitation, MM = Missing Value Source: NWS Daily Summary

Daily Weather History Graph

Daily Weather History Graph

Search for Another Location

Airport or City:

Trip Planner

Search our weather history database for the weather conditions in past years. The results will help you decide how hot, cold, wet, or windy it might be!

Date:

Astronomy

Jul. 19, 2013 Rise Set
Actual Time 4:21 AM AKDT 1:06 AM AKDT
Civil Twilight Sun does not set Sun does not set
Nautical Twilight Sun does not set Sun does not set
Astronomical Twilight Sun does not set Sun does not set
Moon 10:07 PM AKDT (7/19) 1:37 AM AKDT (7/19)
Length of Visible Light 24h 00m
Length of Day
20h 45m
Waxing Gibbous, 88% of the Moon is Illuminated
Jul 19
Waxing Gibbous
Jul 22
Full
Jul 29
Last Quarter
Aug 6
New
Aug 14
First Quarter

Hourly Weather History & Observations

Time (AKDT) Temp. Dew Point Humidity Pressure Visibility Wind Dir Wind Speed Gust Speed Precip Events Conditions
12:16 AM 60.8 °F 51.8 °F 72% 30.05 in 10.0 mi WNW 6.9 mph - N/A   Clear
12:36 AM 60.8 °F 51.8 °F 72% 30.06 in 10.0 mi WNW 8.1 mph - N/A   Clear
12:56 AM 60.8 °F 51.8 °F 72% 30.06 in 10.0 mi WNW 8.1 mph - N/A   Clear
1:16 AM 59.0 °F 51.8 °F 77% 30.07 in 10.0 mi WNW 5.8 mph - N/A   Clear
1:36 AM 59.0 °F 51.8 °F 77% 30.07 in 10.0 mi West 4.6 mph - N/A   Clear
1:56 AM 57.2 °F 51.8 °F 82% 30.07 in 10.0 mi West 4.6 mph - N/A   Clear
2:16 AM 57.2 °F 50.0 °F 77% 30.07 in 10.0 mi West 4.6 mph - N/A   Clear
2:36 AM 57.2 °F 50.0 °F 77% 30.07 in 10.0 mi West 5.8 mph - N/A   Clear
2:56 AM 57.2 °F 50.0 °F 77% 30.08 in 10.0 mi West 5.8 mph - N/A   Clear
3:16 AM 57.2 °F 50.0 °F 77% 30.07 in 10.0 mi WNW 4.6 mph - N/A   Scattered Clouds
3:36 AM 57.2 °F 50.0 °F 77% 30.07 in 10.0 mi WNW 4.6 mph - N/A   Partly Cloudy
3:56 AM 57.2 °F 51.8 °F 82% 30.08 in 10.0 mi WNW 9.2 mph - N/A   Scattered Clouds
4:16 AM 57.2 °F 51.8 °F 82% 30.07 in 10.0 mi NW 8.1 mph - N/A   Scattered Clouds
4:36 AM 57.2 °F 50.0 °F 77% 30.08 in 10.0 mi WNW 8.1 mph - N/A   Mostly Cloudy
4:56 AM 57.2 °F 50.0 °F 77% 30.08 in 10.0 mi WNW 5.8 mph - N/A   Mostly Cloudy
5:16 AM 57.2 °F 50.0 °F 77% 30.08 in 10.0 mi West 5.8 mph - N/A   Mostly Cloudy
5:36 AM 55.4 °F 50.0 °F 82% 30.08 in 10.0 mi West 6.9 mph - N/A   Mostly Cloudy
5:56 AM 55.4 °F 50.0 °F 82% 30.08 in 10.0 mi West 5.8 mph - N/A   Overcast
6:16 AM 55.4 °F 50.0 °F 82% 30.08 in 10.0 mi West 8.1 mph - N/A   Overcast
6:36 AM 55.4 °F 48.2 °F 77% 30.08 in 10.0 mi West 9.2 mph - N/A   Overcast
6:56 AM 55.4 °F 48.2 °F 77% 30.08 in 10.0 mi West 9.2 mph - N/A   Mostly Cloudy
7:16 AM 55.4 °F 48.2 °F 77% 30.09 in 10.0 mi West 9.2 mph - N/A   Overcast
7:36 AM 55.4 °F 48.2 °F 77% 30.09 in 10.0 mi West 10.4 mph - N/A   Overcast
7:56 AM 55.4 °F 50.0 °F 82% 30.10 in 10.0 mi West 10.4 mph - N/A   Overcast
8:16 AM 55.4 °F 50.0 °F 82% 30.10 in 10.0 mi West 11.5 mph 16.1 mph N/A   Overcast
8:36 AM 55.4 °F 50.0 °F 82% 30.10 in 10.0 mi West 12.7 mph - N/A   Overcast
8:56 AM 55.4 °F 48.2 °F 77% 30.11 in 10.0 mi West 10.4 mph 17.3 mph N/A   Overcast
9:16 AM 55.4 °F 48.2 °F 77% 30.11 in 10.0 mi West 9.2 mph - N/A   Overcast
9:36 AM 55.4 °F 48.2 °F 77% 30.12 in 10.0 mi West 11.5 mph 18.4 mph N/A   Overcast
9:56 AM 55.4 °F 48.2 °F 77% 30.12 in 10.0 mi West 10.4 mph 17.3 mph N/A   Overcast
10:16 AM 55.4 °F 50.0 °F 82% 30.12 in 10.0 mi West 12.7 mph 19.6 mph N/A   Overcast
10:36 AM 55.4 °F 50.0 °F 82% 30.13 in 10.0 mi West 13.8 mph 18.4 mph N/A   Overcast
10:56 AM 55.4 °F 51.8 °F 88% 30.13 in 10.0 mi West 13.8 mph 19.6 mph N/A   Overcast
11:16 AM 55.4 °F 51.8 °F 88% 30.14 in 10.0 mi West 13.8 mph 17.3 mph N/A   Overcast
11:36 AM 55.4 °F 50.0 °F 82% 30.14 in 10.0 mi West 13.8 mph - N/A   Overcast
11:56 AM 55.4 °F 50.0 °F 82% 30.14 in 10.0 mi WNW 13.8 mph - 0.01 in   Overcast
12:16 PM 55.4 °F 50.0 °F 82% 30.14 in 10.0 mi West 15.0 mph 18.4 mph N/A   Overcast
12:36 PM 55.4 °F 51.8 °F 88% 30.14 in 10.0 mi WNW 11.5 mph 18.4 mph N/A   Mostly Cloudy
12:56 PM 55.4 °F 51.8 °F 88% 30.14 in 10.0 mi WNW 11.5 mph 16.1 mph 0.01 in   Mostly Cloudy
1:16 PM 55.4 °F 50.0 °F 82% 30.14 in 10.0 mi West 13.8 mph 17.3 mph N/A   Overcast
1:36 PM 57.2 °F 50.0 °F 77% 30.14 in 10.0 mi WNW 11.5 mph - N/A   Overcast
1:56 PM 57.2 °F 51.8 °F 82% 30.14 in 10.0 mi WNW 11.5 mph 17.3 mph N/A   Overcast
2:16 PM 57.2 °F 51.8 °F 82% 30.14 in 10.0 mi WNW 10.4 mph - N/A   Overcast
2:36 PM 57.2 °F 51.8 °F 82% 30.14 in 10.0 mi WNW 10.4 mph - N/A   Overcast
2:56 PM 59.0 °F 51.8 °F 77% 30.14 in 10.0 mi WNW 9.2 mph - N/A   Overcast
3:16 PM 59.0 °F 51.8 °F 77% 30.13 in 10.0 mi West 11.5 mph - N/A   Overcast
3:36 PM 60.8 °F 51.8 °F 72% 30.13 in 10.0 mi West 11.5 mph - N/A   Overcast
3:56 PM 60.8 °F 51.8 °F 72% 30.13 in 10.0 mi WNW 11.5 mph 16.1 mph N/A   Mostly Cloudy
4:16 PM 60.8 °F 48.2 °F 63% 30.12 in 10.0 mi WNW 9.2 mph - N/A   Mostly Cloudy
4:36 PM 60.8 °F 48.2 °F 63% 30.12 in 10.0 mi WNW 10.4 mph - N/A   Mostly Cloudy
4:56 PM 60.8 °F 50.0 °F 68% 30.12 in 10.0 mi WSW 11.5 mph - N/A   Mostly Cloudy
5:16 PM 60.8 °F 50.0 °F 68% 30.12 in 10.0 mi West 9.2 mph - N/A   Mostly Cloudy
5:36 PM 62.6 °F 51.8 °F 68% 30.12 in 10.0 mi West 12.7 mph 18.4 mph N/A   Mostly Cloudy
5:56 PM 59.0 °F 51.8 °F 77% 30.12 in 10.0 mi WNW 10.4 mph - N/A   Mostly Cloudy
6:16 PM 60.8 °F 48.2 °F 63% 30.12 in 10.0 mi NW 8.1 mph - N/A   Mostly Cloudy
6:36 PM 60.8 °F 50.0 °F 68% 30.11 in 10.0 mi WSW 10.4 mph - N/A   Mostly Cloudy
6:56 PM 60.8 °F 51.8 °F 72% 30.11 in 10.0 mi WSW 11.5 mph - N/A   Overcast
7:16 PM 60.8 °F 51.8 °F 72% 30.11 in 10.0 mi WSW 9.2 mph 16.1 mph N/A   Scattered Clouds
7:36 PM 60.8 °F 51.8 °F 72% 30.11 in 10.0 mi WSW 10.4 mph - N/A   Mostly Cloudy
7:56 PM 60.8 °F 51.8 °F 72% 30.11 in 10.0 mi West 9.2 mph - N/A   Overcast
8:16 PM 60.8 °F 50.0 °F 68% 30.11 in 10.0 mi West 12.7 mph - N/A   Overcast
8:36 PM 60.8 °F 50.0 °F 68% 30.11 in 10.0 mi West 11.5 mph - N/A   Mostly Cloudy
8:56 PM 59.0 °F 50.0 °F 72% 30.11 in 10.0 mi West 11.5 mph - N/A   Mostly Cloudy
9:16 PM 57.2 °F 51.8 °F 82% 30.11 in 9.0 mi West 10.4 mph - N/A   Mostly Cloudy
9:36 PM 59.0 °F 51.8 °F 77% 30.11 in 10.0 mi West 10.4 mph - N/A   Overcast
9:56 PM 57.2 °F 50.0 °F 77% 30.11 in 10.0 mi West 9.2 mph - N/A   Mostly Cloudy
10:16 PM 57.2 °F 50.0 °F 77% 30.12 in 10.0 mi West 6.9 mph - N/A   Mostly Cloudy
10:36 PM 57.2 °F 48.2 °F 72% 30.12 in 10.0 mi WNW 11.5 mph - N/A   Mostly Cloudy
10:56 PM 57.2 °F 48.2 °F 72% 30.12 in 10.0 mi WNW 9.2 mph - N/A   Overcast
11:16 PM 57.2 °F 48.2 °F 72% 30.12 in 10.0 mi WNW 10.4 mph - N/A   Overcast
11:36 PM 55.4 °F 48.2 °F 77% 30.13 in 10.0 mi WNW 10.4 mph - N/A   Overcast
11:56 PM 55.4 °F 48.2 °F 77% 30.13 in 10.0 mi WNW 12.7 mph 17.3 mph N/A   Overcast